This demonstration page uses our WeatherBlox Daily Observations layout. Learn more.

Left ArrowRight Arrow

39.51506, -84.39828

Hourly Observations for December 29, 2018

Temp ( °F °C ) Dew Point ( °F °C ) Humidity (%) Winds ( mph kmh ) Pressure ( in mb ) Visibility ( mi km ) Precip ( " mm )
12:15 am 00:15 Cloudy 34 1.3 28 -2.4 77 77 W 8 13 30.18 1022 10 16 N/A
12:35 am 00:35 Cloudy 34 1.3 28 -2.5 76 76 WSW 9 15 30.18 1022 10 16 N/A
12:55 am 00:55 Cloudy 35 1.4 27 -2.6 75 75 W 9 15 30.21 1023 10 16 N/A
1:15 am 01:15 Cloudy 35 1.4 28 -2.4 76 76 W 8 13 30.21 1023 10 16 N/A
1:35 am 01:35 Cloudy 35 1.4 28 -2.3 77 77 W 7 11 30.21 1023 10 16 N/A
1:55 am 01:55 Cloudy 35 1.5 28 -2.4 76 76 W 10 17 30.21 1023 10 16 N/A
2:15 am 02:15 Cloudy 35 1.4 28 -2.3 77 77 W 7 11 30.21 1023 10 16 N/A
2:35 am 02:35 Cloudy 35 1.4 28 -2.2 77 77 W 8 13 30.24 1024 10 16 N/A
2:55 am 02:55 Cloudy 34 1.3 28 -2.2 78 78 WNW 8 13 30.24 1024 10 16 N/A
3:15 am 03:15 Cloudy 34 1.2 28 -2.2 78 78 W 7 11 30.24 1024 10 16 N/A
3:35 am 03:35 Cloudy 34 1.1 27 -2.7 76 76 WNW 12 19 30.27 1025 10 16 N/A
3:55 am 03:55 Cloudy 34 0.9 27 -2.7 77 77 WNW 7 11 30.27 1025 10 16 N/A
4:15 am 04:15 Cloudy 34 0.9 27 -2.6 78 78 W 9 15 30.27 1025 10 16 N/A
4:35 am 04:35 Cloudy 33 0.8 27 -2.9 77 77 WSW 10 17 30.27 1025 10 16 N/A
4:55 am 04:55 Cloudy 33 0.8 26 -3.1 75 75 W 12 19 30.27 1025 10 16 N/A
5:15 am 05:15 Cloudy 33 0.8 26 -3.3 74 74 W 7 11 30.27 1025 10 16 N/A
5:35 am 05:35 Cloudy 33 0.8 26 -3.2 75 75 WNW 6 9 30.30 1026 10 16 N/A
5:55 am 05:55 Cloudy 33 0.8 26 -3.5 73 73 W 8 13 30.30 1026 10 16 N/A
6:15 am 06:15 Cloudy 33 0.7 26 -3.5 74 74 W 3 6 30.30 1026 10 16 N/A
6:35 am 06:35 Cloudy 33 0.8 26 -3.4 74 74 SW 3 6 30.30 1026 10 16 N/A
6:55 am 06:55 Cloudy 33 0.8 26 -3.1 75 75 SSW 5 7 30.33 1027 10 16 N/A
7:15 am 07:15 Cloudy 33 0.7 27 -2.8 78 78 SW 7 11 30.33 1027 10 16 N/A
7:35 am 07:35 Cloudy 33 0.7 27 -2.8 78 78 SW 6 9 30.33 1027 10 16 N/A
7:55 am 07:55 Cloudy 33 0.7 27 -2.7 78 78 SW 6 9 30.36 1028 10 16 N/A
8:15 am 08:15 Cloudy 33 0.7 27 -2.6 79 79 SW 7 11 30.36 1028 10 16 N/A
8:35 am 08:35 Cloudy 33 0.7 27 -2.9 77 77 WSW 8 13 30.36 1028 10 16 N/A
8:55 am 08:55 Cloudy 33 0.7 27 -2.8 78 78 WSW 7 11 30.36 1028 10 16 N/A
9:15 am 09:15 Cloudy 33 0.7 27 -2.7 78 78 W 6 9 30.39 1029 10 16 N/A
9:35 am 09:35 Cloudy 33 0.6 26 -3.1 77 77 W 10 17 30.39 1029 10 16 N/A
9:55 am 09:55 Cloudy 33 0.7 27 -2.9 77 77 W 8 13 30.39 1029 10 16 N/A
10:15 am 10:15 Cloudy 33 0.8 27 -2.8 77 77 W 9 15 30.39 1029 10 16 N/A
10:35 am 10:35 Cloudy 33 0.8 27 -2.8 77 77 WSW 8 13 30.42 1030 10 16 N/A
10:55 am 10:55 Cloudy 33 0.8 27 -2.8 77 77 WSW 8 13 30.42 1030 10 16 N/A
11:15 am 11:15 Cloudy 34 0.9 27 -2.9 76 76 WSW 5 7 30.39 1029 10 16 N/A
11:35 am 11:35 Cloudy 34 1.2 27 -2.9 74 74 WSW 6 9 30.39 1029 10 16 N/A
11:55 am 11:55 Cloudy 34 1.1 27 -3 74 74 W 6 9 30.36 1028 10 16 N/A
12:15 pm 12:15 Cloudy 35 1.6 27 -3 72 72 N N/A 30.33 1027 10 16 N/A
12:35 pm 12:35 Cloudy 35 1.7 26 -3.3 70 70 WSW 3 6 30.33 1027 10 16 N/A
12:55 pm 12:55 Cloudy 35 1.6 26 -3.2 71 71 WSW 6 9 30.33 1027 10 16 N/A
1:15 pm 13:15 Cloudy 35 1.6 26 -3.3 70 70 N N/A 30.33 1027 10 16 N/A
1:35 pm 13:35 Cloudy 35 1.8 26 -3.1 70 70 SSW 6 9 30.33 1027 10 16 N/A
1:55 pm 13:55 Cloudy 36 2 27 -3 70 70 W 5 7 30.33 1027 10 16 N/A
2:15 pm 14:15 Cloudy 36 2.1 27 -2.9 70 70 WSW 7 11 30.33 1027 10 16 N/A
2:35 pm 14:35 Cloudy 36 2.3 27 -3 68 68 WSW 6 9 30.33 1027 10 16 N/A
2:55 pm 14:55 Cloudy 36 2.2 27 -3 69 69 SW 6 9 30.33 1027 10 16 N/A
3:15 pm 15:15 Cloudy 36 2.1 26 -3.3 68 68 W 5 7 30.33 1027 10 16 N/A
3:35 pm 15:35 Cloudy 36 2 26 -3.2 69 69 W 3 6 30.33 1027 10 16 N/A
3:55 pm 15:55 Cloudy 36 2 26 -3.4 68 68 W 3 6 30.33 1027 10 16 N/A
4:15 pm 16:15 Cloudy 36 2 27 -3 70 70 SW 6 9 30.33 1027 10 16 N/A
4:35 pm 16:35 Cloudy 36 2 27 -2.8 71 71 SW 3 6 30.36 1028 10 16 N/A
4:55 pm 16:55 Cloudy 36 2 27 -2.9 70 70 WSW 3 6 30.33 1027 10 16 N/A
5:15 pm 17:15 Cloudy 35 1.8 27 -3 71 71 W 5 7 30.33 1027 10 16 N/A
5:35 pm 17:35 Cloudy 35 1.7 27 -3 71 71 N N/A 30.33 1027 10 16 N/A
5:55 pm 17:55 Cloudy 35 1.6 26 -3.1 71 71 WSW 3 6 30.33 1027 10 16 N/A
6:15 pm 18:15 Cloudy 35 1.6 26 -3.1 71 71 N N/A 30.33 1027 10 16 N/A
6:35 pm 18:35 Cloudy 35 1.5 27 -2.9 73 73 N N/A 30.30 1026 10 16 N/A
6:55 pm 18:55 Cloudy 35 1.6 27 -2.9 72 72 N N/A 30.30 1026 10 16 N/A
7:15 pm 19:15 Cloudy 35 1.7 27 -3 71 71 N N/A 30.30 1026 10 16 N/A
7:35 pm 19:35 Cloudy 35 1.5 27 -2.6 74 74 SW 3 6 30.30 1026 10 16 N/A
7:55 pm 19:55 Cloudy 35 1.5 28 -2.2 77 77 W 6 9 30.30 1026 10 16 N/A
8:15 pm 20:15 Cloudy 35 1.4 28 -2.2 77 77 W 3 6 30.30 1026 10 16 N/A
8:35 pm 20:35 Cloudy 35 1.4 28 -2.3 77 77 N N/A 30.30 1026 10 16 N/A
8:55 pm 20:55 Cloudy 35 1.5 29 -1.9 78 78 N N/A 30.30 1026 10 16 N/A
9:15 pm 21:15 Cloudy 35 1.6 28 -2.3 76 76 N N/A 30.27 1025 10 16 N/A
9:35 pm 21:35 Cloudy 35 1.4 29 -1.8 80 80 WSW 3 6 30.30 1026 10 16 N/A
9:55 pm 21:55 Cloudy 35 1.7 28 -2.4 75 75 SSW 6 9 30.30 1026 10 16 N/A
10:15 pm 22:15 Cloudy 35 1.7 28 -2.4 75 75 SW 8 13 30.27 1025 10 16 N/A
10:35 pm 22:35 Cloudy 35 1.9 27 -2.8 71 71 SW 8 13 30.30 1026 10 16 N/A
10:55 pm 22:55 Cloudy 35 1.8 27 -2.8 72 72 SW 9 15 30.27 1025 10 16 N/A
11:15 pm 23:15 Cloudy 35 1.8 27 -2.6 73 73 SW 12 19 30.27 1025 10 16 N/A
11:35 pm 23:35 Cloudy 35 1.8 28 -2.5 73 73 SSW 10 17 30.27 1025 10 16 N/A
11:55 pm 23:55 Cloudy 35 1.7 28 -2.2 76 76 SSW 9 15 30.24 1024 10 16 N/A

Powered by AerisWeather